EW5212 Weather Reports


time (UTC)temp
C
wind
direction
speed
KPH
gust
KPH
rain 1hr
cm
rain 24hr
cm
rain mn
cm
humidity
%
barometer
mb
20260510174520 30 23 3.2 12.9 0.00 0.00 0.00 37 1014.3
20260510173520 30 293 1.6 6.4 0.00 0.00 0.00 38 1014.4
20260510172520 30 68 1.6 3.2 0.00 0.00 0.00 38 1014.4
20260510171520 30 0 1.6 9.7 0.00 0.00 0.00 37 1014.6
20260510170520 30 248 1.6 6.4 0.00 0.00 0.00 37 1014.7
20260510165521 30 293 1.6 4.8 0.00 0.00 0.00 37 1014.8
20260510164520 30 45 1.6 4.8 0.00 0.00 0.00 36 1014.9
20260510163521 30 293 1.6 8.0 0.00 0.00 0.00 38 1014.9
20260510162521 29 0 1.6 6.4 0.00 0.00 0.00 40 1014.7
20260510161520 29 270 1.6 6.4 0.00 0.00 0.00 39 1014.9
20260510160520 29 293 1.6 6.4 0.00 0.00 0.00 40 1015.0
20260510155546 29 90 1.6 3.2 0.00 0.00 0.00 45 1015.1
20260510154520 29 338 1.6 6.4 0.00 0.00 0.00 44 1015.1
20260510153520 28 270 1.6 3.2 0.00 0.00 0.00 45 1015.4
20260510152520 28 293 1.6 4.8 0.00 0.00 0.00 45 1015.3
20260510151540 28 0.0 1.6 0.00 0.00 0.00 46 1015.5
20260510150521 28 338 1.6 3.2 0.00 0.00 0.00 47 1015.5
20260510145520 27 270 1.6 4.8 0.00 0.00 0.00 47 1015.4
20260510144546 27 270 1.6 6.4 0.00 0.00 0.00 46 1015.4
20260510143520 27 0.0 3.2 0.00 0.00 0.00 53 1015.2
20260510142520 26 23 1.6 4.8 0.00 0.00 0.00 52 1015.2
20260510141520 26 0.0 0.0 0.00 0.00 0.00 58 1015.1
20260510140520 25 0.0 1.6 0.00 0.00 0.00 57 1015.2
20260510135520 24 0.0 0.0 0.00 0.00 0.00 61 1015.1
20260510134520 23 0.0 1.6 0.00 0.00 0.00 63 1015.1
20260510133520 23 0.0 0.0 0.00 0.00 0.00 64 1015.1
20260510132520 22 0.0 0.0 0.00 0.00 0.00 69 1015.0
20260510131520 20 0.0 1.6 0.00 0.00 0.00 75 1015.1
20260510130610 18 0.0 4.8 0.00 0.00 0.00 83 1015.2
20260510125545 16 0.0 3.2 0.00 0.00 0.00 92 1014.9
20260510124545 14 0.0 0.0 0.00 0.00 0.00 99 1014.7
20260510123520 13 0.0 0.0 0.00 0.00 0.00 99 1014.7
20260510122520 13 0.0 0.0 0.00 0.00 0.00 99 1014.8
20260510121545 12 0.0 0.0 0.00 0.00 0.00 99 1014.5
20260510120520 11 0.0 0.0 0.00 0.00 0.00 98 1014.3
20260510115520 10 0.0 0.0 0.00 0.00 0.00 97 1014.2
20260510114520 10 0.0 0.0 0.00 0.00 0.00 97 1014.2
20260510113520 10 0.0 0.0 0.00 0.00 0.00 97 1014.2
20260510112545 9 0.0 0.0 0.00 0.00 0.00 96 1014.0
20260510111520 9 0.0 0.0 0.00 0.00 0.00 96 1013.9
20260510110520 9 0.0 0.0 0.00 0.00 0.00 96 1013.8
20260510105520 9 0.0 0.0 0.00 0.00 0.00 96 1013.7
20260510104520 9 0.0 0.0 0.00 0.00 0.00 96 1013.6
20260510103546 9 0.0 0.0 0.00 0.00 0.00 96 1013.3
20260510102545 9 0.0 0.0 0.00 0.00 0.00 95 1013.2
20260510101545 9 0.0 0.0 0.00 0.00 0.00 95 1013.0
20260510100520 9 0.0 0.0 0.00 0.00 0.00 95 1012.9
20260510095522 10 0.0 0.0 0.00 0.00 0.00 95 1013.0
20260510094523 10 0.0 0.0 0.00 0.00 0.00 95 1012.8
20260510093522 10 0.0 0.0 0.00 0.00 0.00 95 1012.9
20260510092522 10 0.0 0.0 0.00 0.00 0.00 95 1012.7
20260510091522 10 0.0 0.0 0.00 0.00 0.00 95 1012.6
20260510090522 11 0.0 0.0 0.00 0.00 0.00 95 1012.6
20260510085522 11 0.0 0.0 0.00 0.00 0.00 94 1012.5
20260510084522 11 0.0 0.0 0.00 0.00 0.00 94 1012.5
20260510083522 11 0.0 0.0 0.00 0.00 0.00 94 1012.4
20260510082522 12 0.0 0.0 0.00 0.00 0.00 94 1012.3
20260510081522 12 0.0 0.0 0.00 0.00 0.00 94 1012.1
20260510080547 12 0.0 0.0 0.00 0.00 0.00 94 1012.1
20260510075522 13 0.0 0.0 0.00 0.00 0.00 93 1012.1
20260510074522 13 0.0 0.0 0.00 0.00 0.00 93 1012.0
20260510073523 13 0.0 0.0 0.00 0.00 0.00 93 1012.0
20260510072547 13 0.0 0.0 0.00 0.00 0.00 92 1012.0
20260510071522 14 0.0 0.0 0.00 0.00 0.00 92 1011.9
20260510070522 14 0.0 0.0 0.00 0.00 0.00 91 1012.0
20260510065522 15 0.0 0.0 0.00 0.00 0.00 90 1012.0
20260510064522 15 0.0 0.0 0.00 0.00 0.00 89 1012.0
20260510063522 16 0.0 0.0 0.00 0.00 0.00 89 1011.9
20260510062522 16 0.0 0.0 0.00 0.00 0.00 88 1011.9
20260510061522 16 0.0 0.0 0.00 0.00 0.00 86 1012.0
20260510060522 17 0.0 1.6 0.00 0.00 0.00 86 1012.0
20260510055522 17 0.0 1.6 0.00 0.00 0.00 86 1012.0
20260510054522 17 0.0 1.6 0.00 0.00 0.00 85 1012.1
20260510053547 17 0.0 4.8 0.00 0.00 0.00 84 1012.0
20260510052522 18 270 1.6 3.2 0.00 0.00 0.00 84 1012.1
20260510051522 18 0.0 1.6 0.00 0.00 0.00 83 1012.1
20260510050547 18 0.0 1.6 0.00 0.00 0.00 82 1012.1
20260510045547 18 0.0 3.2 0.00 0.00 0.00 81 1012.0
20260510044522 18 0.0 1.6 0.00 0.00 0.00 81 1012.0
20260510043612 18 0.0 4.8 0.00 0.00 0.00 81 1012.0
20260510042522 18 0.0 3.2 0.00 0.00 0.00 80 1012.0
20260510041547 18 0.0 0.0 0.00 0.00 0.00 79 1012.1
20260510040521 18 0.0 1.6 0.00 0.00 0.00 79 1011.9
20260510035546 18 0.0 3.2 0.00 0.00 0.00 79 1011.9
20260510034522 18 0.0 0.0 0.00 0.00 0.00 79 1011.9
20260510033521 18 0.0 3.2 0.00 0.00 0.00 78 1011.9
20260510032521 18 0.0 1.6 0.00 0.00 0.00 78 1011.8
20260510031522 18 0.0 3.2 0.00 0.00 0.00 78 1011.8
20260510030521 18 0.0 0.0 0.00 0.00 0.00 78 1011.6
20260510025521 18 0.0 0.0 0.00 0.00 0.00 79 1011.5
20260510024521 18 0.0 0.0 0.00 0.00 0.00 80 1011.4
20260510023521 17 0.0 0.0 0.00 0.00 0.00 81 1011.4
20260510022521 17 0.0 0.0 0.00 0.00 0.00 82 1011.3
20260510021546 16 0.0 0.0 0.00 0.00 0.00 83 1011.1
20260510020523 16 0.0 0.0 0.00 0.00 0.00 84 1011.0
20260510015521 16 0.0 0.0 0.00 0.00 0.00 83 1010.8
20260510014521 16 0.0 0.0 0.00 0.00 0.00 82 1010.6
20260510013521 16 0.0 0.0 0.00 0.00 0.00 81 1010.7
20260510012521 17 0.0 0.0 0.00 0.00 0.00 80 1010.4
20260510011546 17 0.0 0.0 0.00 0.00 0.00 79 1010.4
20260510010522 17 0.0 0.0 0.00 0.00 0.00 78 1010.3
20260510005521 18 0.0 0.0 0.00 0.00 0.00 76 1010.2
20260510004521 18 0.0 0.0 0.00 0.00 0.00 74 1010.0
20260510003521 19 0.0 0.0 0.00 0.00 0.00 71 1009.9
20260510002521 20 0.0 0.0 0.00 0.00 0.00 69 1009.8
20260510001522 21 0.0 0.0 0.00 0.00 0.00 67 1009.8
20260510000521 21 0.0 0.0 0.00 0.00 0.00 65 1009.6
20260509235521 22 0.0 0.0 0.00 0.00 0.00 62 1009.5
20260509234521 23 0.0 0.0 0.00 0.00 0.00 60 1009.5
20260509233546 23 0.0 0.0 0.00 0.00 0.00 55 1009.5
20260509232521 24 270 1.6 4.8 0.00 0.00 0.00 54 1009.5
20260509231522 24 0.0 3.2 0.00 0.00 0.00 54 1009.5
20260509230546 24 270 1.6 11.3 0.00 0.00 0.00 54 1009.6
20260509225521 24 270 3.2 11.3 0.00 0.00 0.00 53 1009.5
20260509224522 25 68 1.6 6.4 0.00 0.00 0.00 53 1009.4
20260509223522 25 270 3.2 6.4 0.00 0.00 0.00 52 1009.4
20260509222521 25 293 3.2 14.5 0.00 0.00 0.00 52 1009.4
20260509221546 25 270 1.6 6.4 0.00 0.00 0.00 53 1009.6
20260509220521 25 270 1.6 6.4 0.00 0.00 0.00 51 1009.5
20260509215521 25 293 1.6 6.4 0.00 0.00 0.00 52 1009.4
20260509214521 25 270 3.2 9.7 0.00 0.00 0.00 52 1009.3
20260509213521 24 270 3.2 9.7 0.00 0.00 0.00 51 1009.2
20260509212521 25 293 3.2 9.7 0.00 0.00 0.00 53 1009.2
20260509211521 25 0.0 3.2 0.00 0.00 0.00 55 1009.2
20260509210521 25 270 1.6 6.4 0.00 0.00 0.00 55 1009.3
20260509205521 25 293 3.2 12.9 0.00 0.00 0.00 53 1009.2
20260509204611 26 293 3.2 11.3 0.00 0.00 0.00 50 1009.1
20260509203521 26 293 3.2 9.7 0.00 0.00 0.00 51 1008.9
20260509202521 26 293 4.8 14.5 0.00 0.00 0.00 51 1008.8
20260509201522 26 270 3.2 9.7 0.00 0.00 0.00 49 1008.9
20260509201459 25 270 3.2 11.3 0.00 0.00 0.00 52 1009.2